Weather History for Reidsville, NC

Change the Weather History Date:

Friday, October 14, 2011

  Actual Average (KGSO) Record (KGSO)
Temperature  
Mean Temperature 65 °F 60 °F  
Max Temperature 71 °F 71 °F 85 °F (1940)
Min Temperature 59 °F 49 °F 29 °F (1988)
Degree Days  
Heating Degree Days 0 6  
Month to date heating degree days 63  
Since 1 July heating degree days 94  
Cooling Degree Days 0 1  
Month to date cooling degree days 23  
Year to date cooling degree days 1470  
Growing Degree Days 15 (Base 50)    
Moisture  
Dew Point 54 °F    
Average Humidity 74    
Maximum Humidity 98    
Minimum Humidity 33    
Precipitation  
Precipitation 0.21 in 0.10 in 1.76 in (1912)
Month to date precipitation 1.42  
Year to date precipitation 34.40  
Sea Level Pressure  
Sea Level Pressure 29.63 in    
Wind  
Wind Speed 4 mph (WSW)    
Max Wind Speed 16 mph    
Max Gust Speed 29 mph    
Visibility 9 miles    
Events Rain    
T = Trace of Precipitation, MM = Missing Value Source: NWS Daily Summary

Daily Weather History Graph

Daily Weather History Graph

Search for Another Location

Airport:

Trip Planner

Search our weather history database for the weather conditions in past years. The results will help you decide how hot, cold, wet, or windy it might be!

Date:

Astronomy

Oct. 14, 2011 Rise Set
Actual Time 7:25 AM EDT 6:44 PM EDT
Civil Twilight 6:59 AM EDT 7:10 PM EDT
Nautical Twilight 6:29 AM EDT 7:40 PM EDT
Astronomical Twilight 5:59 AM EDT 8:10 PM EDT
Moon 8:03 PM EDT (10/14) 9:46 AM EDT (10/14)
Length of Visible Light 12h 11m
Length of Day
11h 19m
Waning Gibbous, 94% of the Moon is Illuminated
Oct 14
Waning Gibbous
Oct 19
Last Quarter
Oct 26
New
Nov 2
First Quarter
Nov 10
Full

Hourly Weather History & Observations

Time (EDT) Temp. Dew Point Humidity Pressure Visibility Wind Dir Wind Speed Gust Speed Precip Events Conditions
12:15 AM 63.0 °F 60.8 °F 93% 29.61 in 10.0 mi Calm Calm - N/A   Mostly Cloudy
12:35 AM 62.4 °F 60.4 °F 93% 29.59 in 7.0 mi Calm Calm - N/A   Scattered Clouds
12:55 AM 61.3 °F 60.1 °F 96% 29.59 in 7.0 mi Calm Calm - N/A   Mostly Cloudy
1:15 AM 60.8 °F 60.1 °F 97% 29.58 in 5.0 mi Calm Calm - N/A   Mostly Cloudy
1:35 AM 60.4 °F 59.7 °F 97% 29.58 in 5.0 mi Calm Calm - N/A Rain Light Rain
1:55 AM 61.9 °F 61.3 °F 98% 29.60 in 10.0 mi Calm Calm - N/A   Light Drizzle
2:15 AM 61.9 °F 61.0 °F 97% 29.58 in 7.0 mi Calm Calm - N/A Rain Light Rain
2:35 AM 61.7 °F 60.8 °F 97% 29.58 in 7.0 mi Calm Calm - N/A   Mostly Cloudy
2:55 AM 61.7 °F 60.8 °F 97% 29.58 in 7.0 mi Calm Calm - N/A   Overcast
3:15 AM 61.7 °F 60.8 °F 97% 29.58 in 10.0 mi WSW 3.5 mph - N/A   Overcast
3:35 AM 61.2 °F 59.9 °F 96% 29.58 in 10.0 mi Calm Calm - N/A Rain Light Rain
3:55 AM 60.8 °F 59.2 °F 94% 29.57 in 10.0 mi WSW 3.5 mph - N/A   Mostly Cloudy
4:15 AM 60.4 °F 59.0 °F 95% 29.58 in 10.0 mi SSW 4.6 mph - N/A Rain Light Rain
4:35 AM 60.3 °F 59.0 °F 96% 29.58 in 7.0 mi SW 4.6 mph - 0.02 in Rain Heavy Rain
4:55 AM 60.1 °F 58.8 °F 96% 29.58 in 3.0 mi Calm Calm - 0.16 in Rain Rain
5:15 AM 59.5 °F 58.5 °F 96% 29.58 in 5.0 mi SSW 3.5 mph - 0.02 in Rain Rain
5:35 AM 59.2 °F 58.3 °F 97% 29.58 in 7.0 mi Calm Calm - 0.04 in Rain Rain
5:55 AM 59.0 °F 58.3 °F 97% 29.58 in 10.0 mi SW 4.6 mph - 0.04 in   Light Drizzle
6:15 AM 59.0 °F 58.3 °F 97% 29.58 in 10.0 mi WSW 4.6 mph - N/A Rain Rain
6:35 AM 59.0 °F 58.3 °F 97% 29.59 in 10.0 mi SW 5.8 mph - 0.01 in Rain Light Rain
6:55 AM 59.0 °F 58.5 °F 98% 29.59 in 10.0 mi SW 5.8 mph - 0.01 in   Overcast
7:15 AM 59.2 °F 58.6 °F 98% 29.60 in 10.0 mi WSW 4.6 mph - N/A   Overcast
7:35 AM 59.2 °F 58.6 °F 98% 29.61 in 10.0 mi WSW 5.8 mph - N/A   Overcast
7:55 AM 59.4 °F 58.6 °F 97% 29.61 in 10.0 mi WSW 8.1 mph - N/A   Overcast
8:15 AM 59.5 °F 58.8 °F 97% 29.63 in 10.0 mi West 4.6 mph - N/A Rain Light Rain
8:35 AM 59.5 °F 59.0 °F 98% 29.63 in 10.0 mi WSW 4.6 mph - N/A   Mostly Cloudy
8:55 AM 59.9 °F 59.0 °F 97% 29.64 in 10.0 mi WSW 3.5 mph - N/A   Scattered Clouds
9:15 AM 61.2 °F 59.7 °F 95% 29.65 in 10.0 mi WSW 5.8 mph - N/A   Clear
9:35 AM 61.9 °F 59.2 °F 91% 29.66 in 10.0 mi WSW 6.9 mph - N/A   Clear
9:55 AM 63.3 °F 58.1 °F 83% 29.66 in 10.0 mi WSW 8.1 mph - N/A   Scattered Clouds
10:15 AM 63.9 °F 56.1 °F 76% 29.66 in 10.0 mi WSW 9.2 mph - N/A   Scattered Clouds
10:35 AM 65.1 °F 54.7 °F 69% 29.66 in 10.0 mi West 11.5 mph - N/A   Clear
10:55 AM 66.0 °F 53.2 °F 63% 29.67 in 10.0 mi West 10.4 mph 19.6 mph N/A   Clear
11:15 AM 66.7 °F 50.9 °F 57% 29.68 in 10.0 mi West 8.1 mph 18.4 mph N/A   Clear
11:35 AM 67.6 °F 49.8 °F 53% 29.68 in 10.0 mi West 10.4 mph 21.9 mph N/A   Clear
11:55 AM 68.5 °F 48.0 °F 48% 29.68 in 10.0 mi West 12.7 mph 21.9 mph N/A   Clear
12:35 PM 70.0 °F 45.0 °F 41% 29.69 in 10.0 mi West 15.0 mph 26.5 mph N/A   Scattered Clouds
12:55 PM 70.0 °F 44.1 °F 39% 29.69 in 10.0 mi WNW 11.5 mph 21.9 mph N/A   Mostly Cloudy
1:15 PM 70.0 °F 44.4 °F 40% 29.69 in 10.0 mi West 12.7 mph 20.7 mph N/A   Mostly Cloudy
1:35 PM 69.3 °F 44.4 °F 41% 29.68 in 10.0 mi WNW 8.1 mph 17.3 mph N/A   Scattered Clouds
1:55 PM 70.2 °F 42.6 °F 37% 29.68 in 10.0 mi WNW 12.7 mph 23.0 mph N/A   Mostly Cloudy
2:15 PM 70.9 °F 41.4 °F 34% 29.67 in 10.0 mi West 11.5 mph 23.0 mph N/A   Scattered Clouds
2:35 PM 71.4 °F 41.7 °F 34% 29.67 in 10.0 mi West 16.1 mph 27.6 mph N/A   Mostly Cloudy
2:55 PM 71.6 °F 41.0 °F 33% 29.67 in 10.0 mi West 10.4 mph 28.8 mph N/A   Mostly Cloudy
3:15 PM 71.4 °F 41.0 °F 33% 29.67 in 10.0 mi West 15.0 mph 26.5 mph N/A   Scattered Clouds
3:35 PM 71.1 °F 40.8 °F 33% 29.67 in 10.0 mi West 15.0 mph 20.7 mph N/A   Clear
3:55 PM 69.6 °F 41.2 °F 36% 29.68 in 10.0 mi West 10.4 mph 19.6 mph N/A   Scattered Clouds
4:15 PM 70.5 °F 41.5 °F 35% 29.68 in 10.0 mi West 10.4 mph 16.1 mph N/A   Scattered Clouds
4:35 PM 71.2 °F 42.6 °F 36% 29.68 in 10.0 mi West 6.9 mph 17.3 mph N/A   Scattered Clouds
4:55 PM 70.5 °F 41.9 °F 35% 29.68 in 10.0 mi West 15.0 mph 27.6 mph N/A   Clear
5:15 PM 70.0 °F 41.5 °F 36% 29.69 in 10.0 mi West 10.4 mph 19.6 mph N/A   Clear
5:35 PM 69.1 °F 42.8 °F 39% 29.69 in 10.0 mi West 3.5 mph - N/A   Clear
5:55 PM 67.5 °F 43.9 °F 43% 29.70 in 10.0 mi West 5.8 mph - N/A   Scattered Clouds
6:15 PM 66.6 °F 45.3 °F 46% 29.71 in 10.0 mi West 3.5 mph - N/A   Clear
6:35 PM 64.2 °F 47.3 °F 54% 29.71 in 10.0 mi Calm Calm - N/A   Clear
6:55 PM 59.0 °F 50.2 °F 73% 29.72 in 10.0 mi WSW 3.5 mph - N/A   Clear
7:15 PM 55.4 °F 50.2 °F 83% 29.73 in 10.0 mi Calm Calm - N/A   Clear
7:35 PM 54.5 °F 50.0 °F 85% 29.75 in 10.0 mi Calm Calm - N/A   Clear
7:55 PM 54.7 °F 50.2 °F 85% 29.76 in 10.0 mi SSW 3.5 mph - N/A   Clear
8:15 PM 53.8 °F 49.3 °F 85% 29.77 in 10.0 mi Calm Calm - N/A   Clear
8:35 PM 51.4 °F 48.9 °F 91% 29.78 in 10.0 mi Calm Calm - N/A   Clear
8:55 PM 51.8 °F 48.0 °F 87% 29.79 in 10.0 mi Calm Calm - N/A   Clear
9:15 PM 51.4 °F 47.8 °F 87% 29.80 in 10.0 mi Calm Calm - N/A   Clear
9:35 PM 50.9 °F 48.2 °F 90% 29.81 in 10.0 mi Calm Calm - N/A   Clear
9:55 PM 50.9 °F 48.6 °F 92% 29.81 in 10.0 mi Calm Calm - N/A   Clear
10:15 PM 49.1 °F 47.3 °F 93% 29.81 in 10.0 mi Calm Calm - N/A   Clear
10:35 PM 48.9 °F 48.0 °F 97% 29.82 in 10.0 mi Calm Calm - N/A   Clear
10:55 PM 48.7 °F 47.7 °F 96% 29.83 in 10.0 mi Calm Calm - N/A   Clear
11:15 PM 47.7 °F 46.6 °F 96% 29.83 in 10.0 mi Calm Calm - N/A   Clear
11:35 PM 47.3 °F 46.6 °F 97% 29.83 in 10.0 mi Calm Calm - N/A   Clear
11:55 PM 47.5 °F 46.6 °F 97% 29.84 in 10.0 mi Calm Calm - N/A   Clear